When you browse on this site, cookies collect data to enhance your experience and personalize the content and advertising you see.
Visit our Privacy Policy to learn more. By continuing to use the site, you agree to this use of cookies and data.
  • In Czech Republic
  • List of Countries
  • For 7 days
  • Water Temperature
  • Satellite Maps
  • Weather Map
  • Weather Widgets
  • user-avatar
    Login

    Hourly Weather Kokshamary

    Today, 16 February, Saturday

    Time Temperature Precipitation Wind Pressure Humidity
    00:00 -1°C° 0.1 mm 5 mps 743 mmHg 91%
    01:00 -1°C° 0.1 mm 4 mps 743 mmHg 91%
    02:00 -1°C° 0.1 mm 4 mps 743 mmHg 91%
    03:00 -1°C° 0 mm 3 mps 743 mmHg 93%
    04:00 -1°C° 0 mm 3 mps 743 mmHg 93%
    05:00 -1°C° 0 mm 3 mps 744 mmHg 93%
    06:00 -2°C° 0 mm 4 mps 744 mmHg 93%
    07:00 -2°C° 0.1 mm 4 mps 744 mmHg 93%
    08:00 -1°C° 0.1 mm 4 mps 744 mmHg 93%
    09:00 -1°C° 0 mm 4 mps 744 mmHg 94%
    10:00 -1°C° 0.2 mm 4 mps 744 mmHg 95%
    11:00 -1°C° 0.2 mm 4 mps 744 mmHg 96%
    12:00 -1°C° 0.2 mm 4 mps 744 mmHg 97%
    13:00 -1°C° 0.1 mm 4 mps 745 mmHg 95%
    14:00 -1°C° 0.1 mm 4 mps 745 mmHg 93%
    15:00 -1°C° 0.1 mm 4 mps 746 mmHg 90%
    16:00 -1°C° 0 mm 4 mps 746 mmHg 90%
    17:00 -2°C° 0 mm 4 mps 747 mmHg 90%
    18:00 -3°C° 0 mm 4 mps 747 mmHg 89%
    19:00 -4°C° 0 mm 3 mps 747 mmHg 90%
    20:00 -5°C° 0 mm 3 mps 748 mmHg 91%
    21:00 -7°C° 0 mm 3 mps 748 mmHg 93%
    22:00 -8°C° 0 mm 3 mps 748 mmHg 93%
    23:00 -8°C° 0 mm 2 mps 748 mmHg 94%

    Tomorrow, 17 February, Sunday

    Time Temperature Precipitation Wind Pressure Humidity
    00:00 -9°C° 0 mm 2 mps 748 mmHg 95%
    01:00 -9°C° 0 mm 2 mps 748 mmHg 95%
    02:00 -10°C° 0 mm 2 mps 747 mmHg 94%
    03:00 -10°C° 0 mm 2 mps 747 mmHg 94%
    04:00 -9°C° 0 mm 2 mps 746 mmHg 94%
    05:00 -9°C° 0 mm 3 mps 745 mmHg 93%
    06:00 -8°C° 0 mm 3 mps 744 mmHg 93%
    07:00 -8°C° 0 mm 3 mps 743 mmHg 93%
    08:00 -9°C° 0 mm 4 mps 742 mmHg 93%
    09:00 -8°C° 0 mm 4 mps 741 mmHg 93%
    10:00 -7°C° 0.1 mm 5 mps 740 mmHg 92%
    11:00 -6°C° 0.1 mm 5 mps 740 mmHg 91%
    12:00 -4°C° 0.1 mm 5 mps 739 mmHg 90%
    13:00 -4°C° 0.1 mm 5 mps 737 mmHg 90%
    14:00 -2°C° 0.1 mm 5 mps 736 mmHg 90%
    15:00 -2°C° 0.1 mm 5 mps 735 mmHg 90%
    16:00 -2°C° 0.3 mm 4 mps 735 mmHg 91%
    17:00 -2°C° 0.3 mm 4 mps 734 mmHg 92%
    18:00 -2°C° 0.3 mm 4 mps 734 mmHg 93%
    19:00 -2°C° 0.2 mm 4 mps 734 mmHg 91%
    20:00 -3°C° 0.2 mm 4 mps 733 mmHg 90%
    21:00 -3°C° 0.2 mm 4 mps 733 mmHg 88%
    22:00 -4°C° 0 mm 4 mps 733 mmHg 89%
    23:00 -4°C° 0 mm 4 mps 733 mmHg 91%

    Day after tomorrow, 18 February, Monday

    Time Temperature Precipitation Wind Pressure Humidity
    00:00 -5°C° 0 mm 4 mps 733 mmHg 92%
    01:00 -5°C° 0.1 mm 3 mps 733 mmHg 93%
    02:00 -5°C° 0.1 mm 3 mps 733 mmHg 94%
    03:00 -5°C° 0.1 mm 3 mps 734 mmHg 95%
    04:00 -5°C° 0.1 mm 3 mps 734 mmHg 94%
    05:00 -4°C° 0.1 mm 4 mps 734 mmHg 94%
    06:00 -4°C° 0.1 mm 4 mps 735 mmHg 93%
    07:00 -5°C° 0.2 mm 5 mps 736 mmHg 92%
    08:00 -5°C° 0.2 mm 5 mps 737 mmHg 90%
    09:00 -4°C° 0.2 mm 6 mps 738 mmHg 89%
    10:00 -6°C° 0.2 mm 7 mps 739 mmHg 86%
    11:00 -6°C° 0.2 mm 7 mps 740 mmHg 84%
    12:00 -6°C° 0.2 mm 8 mps 740 mmHg 82%
    13:00 -6°C° 0.1 mm 8 mps 742 mmHg 81%
    14:00 -7°C° 0.1 mm 8 mps 743 mmHg 80%
    15:00 -7°C° 0.1 mm 8 mps 744 mmHg 79%
    16:00 -8°C° 0.1 mm 8 mps 745 mmHg 80%
    17:00 -10°C° 0.1 mm 8 mps 746 mmHg 80%
    18:00 -11°C° 0.1 mm 8 mps 748 mmHg 80%
    19:00 -11°C° 0 mm 7 mps 749 mmHg 79%
    20:00 -12°C° 0 mm 7 mps 750 mmHg 78%
    21:00 -13°C° 0 mm 7 mps 751 mmHg 77%
    22:00 -14°C° 0 mm 7 mps 752 mmHg 78%
    23:00 -15°C° 0 mm 6 mps 753 mmHg 79%

    19 February, Tuesday

    Time Temperature Precipitation Wind Pressure Humidity
    00:00 -15°C° 0 mm 5 mps 754 mmHg 79%
    01:00 -15°C° 0 mm 5 mps 755 mmHg 82%
    02:00 -17°C° 0 mm 5 mps 755 mmHg 84%
    03:00 -16°C° 0 mm 4 mps 756 mmHg 86%
    04:00 -16°C° 0 mm 3 mps 757 mmHg 89%
    05:00 -17°C° 0 mm 3 mps 757 mmHg 91%
    06:00 -17°C° 0 mm 2 mps 758 mmHg 94%
    07:00 -16°C° 0 mm 2 mps 758 mmHg 93%
    08:00 -15°C° 0 mm 2 mps 758 mmHg 92%
    09:00 -15°C° 0 mm 2 mps 758 mmHg 92%
    10:00 -13°C° 0 mm 2 mps 758 mmHg 89%
    11:00 -13°C° 0 mm 3 mps 757 mmHg 86%
    12:00 -11°C° 0 mm 4 mps 757 mmHg 83%
    13:00 -10°C° 0 mm 4 mps 756 mmHg 79%
    14:00 -11°C° 0 mm 5 mps 755 mmHg 76%
    15:00 -10°C° 0 mm 6 mps 755 mmHg 72%
    16:00 -10°C° 0 mm 6 mps 754 mmHg 75%
    17:00 -10°C° 0 mm 6 mps 754 mmHg 77%
    18:00 -8°C° 0 mm 5 mps 754 mmHg 80%
    19:00 -10°C° 0 mm 5 mps 754 mmHg 82%
    20:00 -10°C° 0 mm 5 mps 753 mmHg 84%
    21:00 -9°C° 0 mm 4 mps 753 mmHg 86%
    22:00 -9°C° 0 mm 4 mps 753 mmHg 87%
    23:00 -9°C° 0 mm 4 mps 753 mmHg 89%

    20 February, Wednesday

    Time Temperature Precipitation Wind Pressure Humidity
    00:00 -10°C° 0 mm 4 mps 753 mmHg 90%
    01:00 -10°C° 0 mm 4 mps 753 mmHg 91%
    02:00 -11°C° 0 mm 4 mps 752 mmHg 91%
    03:00 -11°C° 0 mm 4 mps 752 mmHg 92%
    04:00 -11°C° 0 mm 4 mps 752 mmHg 91%
    05:00 -11°C° 0 mm 4 mps 751 mmHg 90%
    06:00 -11°C° 0 mm 4 mps 751 mmHg 89%
    07:00 -10°C° 0 mm 5 mps 751 mmHg 87%
    08:00 -8°C° 0 mm 5 mps 750 mmHg 84%
    09:00 -7°C° 0 mm 5 mps 750 mmHg 82%
    10:00 -8°C° 0 mm 6 mps 750 mmHg 80%
    11:00 -6°C° 0 mm 6 mps 749 mmHg 78%
    12:00 -6°C° 0 mm 6 mps 749 mmHg 76%
    13:00 -6°C° 0 mm 6 mps 749 mmHg 78%
    14:00 -6°C° 0 mm 6 mps 748 mmHg 79%
    15:00 -5°C° 0 mm 6 mps 748 mmHg 80%
    16:00 -6°C° 0 mm 6 mps 748 mmHg 83%
    17:00 -6°C° 0 mm 6 mps 748 mmHg 85%
    18:00 -6°C° 0 mm 6 mps 748 mmHg 87%
    19:00 -5°C° 0.1 mm 5 mps 747 mmHg 87%
    20:00 -5°C° 0.1 mm 5 mps 747 mmHg 88%
    21:00 -5°C° 0.1 mm 5 mps 747 mmHg 89%
    22:00 -5°C° 0.1 mm 5 mps 747 mmHg 90%
    23:00 -5°C° 0.1 mm 5 mps 746 mmHg 90%

    21 February, Thursday

    Time Temperature Precipitation Wind Pressure Humidity
    00:00 -5°C° 0.1 mm 5 mps 746 mmHg 90%
    01:00 -5°C° 0.1 mm 5 mps 746 mmHg 91%
    02:00 -5°C° 0.1 mm 5 mps 745 mmHg 91%
    03:00 -5°C° 0.1 mm 5 mps 745 mmHg 91%
    04:00 -4°C° 0.1 mm 4 mps 745 mmHg 91%
    05:00 -4°C° 0.1 mm 4 mps 744 mmHg 91%
    06:00 -4°C° 0.1 mm 4 mps 744 mmHg 91%
    07:00 -3°C° 0.3 mm 4 mps 744 mmHg 92%
    08:00 -4°C° 0.3 mm 5 mps 743 mmHg 92%
    09:00 -4°C° 0.3 mm 5 mps 743 mmHg 92%
    10:00 -4°C° 0.4 mm 5 mps 743 mmHg 92%
    11:00 -2°C° 0.4 mm 5 mps 743 mmHg 91%
    12:00 -2°C° 0.4 mm 5 mps 742 mmHg 91%
    13:00 -2°C° 0.3 mm 4 mps 742 mmHg 91%
    14:00 -1°C° 0.3 mm 4 mps 742 mmHg 91%
    15:00 -1°C° 0.3 mm 4 mps 742 mmHg 91%
    16:00 -1°C° 0.2 mm 4 mps 742 mmHg 91%
    17:00 -1°C° 0.2 mm 4 mps 742 mmHg 91%
    18:00 0°C° 0.2 mm 3 mps 742 mmHg 92%
    19:00 0°C° 0.3 mm 3 mps 742 mmHg 93%
    20:00 -1°C° 0.3 mm 3 mps 742 mmHg 94%
    21:00 -1°C° 0.3 mm 3 mps 742 mmHg 95%
    22:00 -1°C° 0.2 mm 3 mps 742 mmHg 95%
    23:00 -1°C° 0.2 mm 3 mps 742 mmHg 95%
    Show more